This is the latest recevied weather packets stored in our database for station/object KE5OYL. If no packets are shown the sender has not sent any weather packets the latest 10 day(s).
| Time | Temp. | Humidity | Pressure | Rain* | Wind** | Luminosity | Snow |
|---|---|---|---|---|---|---|---|
| 1777425681 | 26.67° C | 85% | 1009.7 hPa | 0 mm | - | 0 W/m² | - |
| 1777425377 | 26.67° C | 85% | 1009.6 hPa | 0 mm | - | 1 W/m² | - |
| 1777425074 | 26.67° C | 84% | 1009.4 hPa | 0 mm | - | 3 W/m² | - |
| 1777424770 | 26.67° C | 84% | 1008.9 hPa | 0 mm | - | 6 W/m² | - |
| 1777424465 | 26.67° C | 84% | 1008.6 hPa | 0 mm | - | 11 W/m² | - |
| 1777424161 | 26.67° C | 84% | 1008.3 hPa | 0 mm | - | 16 W/m² | - |
| 1777423859 | 26.67° C | 85% | 1008.6 hPa | 0 mm | - | 21 W/m² | - |
| 1777423555 | 26.11° C | 85% | 1009.1 hPa | 0 mm | - | 33 W/m² | - |
| 1777423250 | 26.67° C | 85% | 1009.3 hPa | 0 mm | - | 50 W/m² | - |
| 1777422944 | 26.67° C | 85% | 1009.5 hPa | 0 mm | - | 64 W/m² | - |
| 1777422640 | 26.67° C | 85% | 1009.9 hPa | 0 mm | - | 72 W/m² | - |
| 1777422336 | 26.67° C | 85% | 1009.8 hPa | 0 mm | - | 76 W/m² | - |
| 1777422030 | 26.67° C | 85% | 1009.5 hPa | 0 mm | - | 74 W/m² | - |
| 1777421725 | 26.67° C | 85% | 1009.7 hPa | 0 mm | - | 69 W/m² | - |
| 1777421422 | 26.11° C | 86% | 1010.1 hPa | 0 mm | - | 56 W/m² | - |
| 1777421117 | 26.11° C | 86% | 1009.9 hPa | 0 mm | - | 25 W/m² | - |
| 1777420814 | 26.11° C | 86% | 1010.1 hPa | 0 mm | - | 19 W/m² | - |
| 1777420510 | 26.11° C | 86% | 1009.6 hPa | 0 mm | - | 18 W/m² | - |
| 1777420207 | 26.11° C | 86% | 1010.1 hPa | 0 mm | - | 15 W/m² | - |
| 1777419902 | 26.11° C | 86% | 1009.6 hPa | 0 mm | - | 12 W/m² | - |
| 1777419599 | 26.11° C | 86% | 1010 hPa | 0 mm | - | 10 W/m² | - |
| 1777419298 | 26.11° C | 86% | 1010.8 hPa | 0 mm | - | 10 W/m² | - |
| 1777418996 | 26.11° C | 86% | 1010.2 hPa | 0 mm | - | 8 W/m² | - |
| 1777418690 | 26.11° C | 86% | 1010.1 hPa | 0 mm | - | 5 W/m² | - |
| 1777418387 | 26.11° C | 86% | 1010.7 hPa | 0 mm | - | 4 W/m² | - |
* Rain latest hour (hover to see other rain measurements)
** Current wind speed in m/s (hover to see current wind gust speed)